Weather History for Nancy Ochey FAFB, France

Change the Weather History Date:

Wednesday, February 13, 2013

  Actual Average Record
Temperature  
Mean Temperature 26 °F -  
Max Temperature 32 °F 45 °F 62 °F (1998)
Min Temperature 21 °F 33 °F 12 °F (1999)
Degree Days  
Heating Degree Days 38    
Moisture  
Dew Point 17 °F    
Average Humidity 66    
Maximum Humidity 80    
Minimum Humidity 39    
Precipitation  
Precipitation 0.00 in - - ()
Sea Level Pressure  
Sea Level Pressure 30.15 in    
Wind  
Wind Speed 4 mph ()    
Max Wind Speed 9 mph    
Max Gust Speed -    
Visibility 6.3 miles    
Events      
Averages and records for this station are not official NWS values.
T = Trace of Precipitation, MM = Missing Value Source: Averaged Metar Reports

Daily Weather History Graph

Daily Weather History Graph

Search for Another Location

Airport:

Trip Planner

Search our weather history database for the weather conditions in past years. The results will help you decide how hot, cold, wet, or windy it might be!

Date:

Astronomy

Feb. 13, 2013 Rise Set
Actual Time 7:47 AM CET 5:54 PM CET
Civil Twilight 7:14 AM CET 6:26 PM CET
Nautical Twilight 6:37 AM CET 7:03 PM CET
Astronomical Twilight 6:01 AM CET 7:40 PM CET
Moon 8:46 AM CET (2/13) 10:05 PM CET (2/13)
Length of Visible Light 11h 12m
Length of Day
10h 07m
Waxing Crescent, 12% of the Moon is Illuminated
Feb 13
Waxing Crescent
Feb 17
First Quarter
Feb 25
Full
Mar 4
Last Quarter
Mar 11
New

Hourly Weather History & Observations

Time (CET) Temp. Windchill Dew Point Humidity Pressure Visibility Wind Dir Wind Speed Gust Speed Precip Events Conditions
12:00 AM 26.6 °F - 17.6 °F 69% 30.01 in 6.2 mi Variable 2.3 mph - N/A   Overcast
12:30 AM 26.6 °F 22.6 °F 19.4 °F 74% 30.01 in 6.2 mi NNW 3.5 mph - N/A   Overcast
1:00 AM 26 °F - 19 °F 64% 30.11 in 7 mi North 3.5 mph - -   Clear
1:00 AM 24.8 °F 20.5 °F 19.4 °F 80% 30.04 in 6.2 mi North 3.5 mph - N/A   Overcast
1:30 AM 24.8 °F 19.1 °F 19.4 °F 80% 30.04 in 6.2 mi NE 4.6 mph - N/A   Overcast
2:00 AM 24.8 °F 20.5 °F 19.4 °F 80% 30.04 in 6.2 mi NNE 3.5 mph - N/A   Overcast
2:30 AM 24.8 °F 19.1 °F 19.4 °F 80% 30.04 in 6.2 mi North 4.6 mph - N/A   Overcast
3:00 AM 24.8 °F 19.1 °F 19.4 °F 80% 30.04 in 6.2 mi North 4.6 mph - N/A   Overcast
3:30 AM 24.8 °F 19.1 °F 19.4 °F 80% 30.04 in 6.2 mi North 4.6 mph - N/A   Overcast
4:00 AM 24.8 °F 20.5 °F 19.4 °F 80% 30.04 in 6.2 mi North 3.5 mph - N/A   Overcast
4:30 AM 24.8 °F 20.5 °F 19.4 °F 80% 30.06 in 6.2 mi North 3.5 mph - N/A   Overcast
5:00 AM 24.8 °F 20.5 °F 19.4 °F 80% 30.06 in 6.2 mi North 3.5 mph - N/A   Overcast
5:30 AM 24.8 °F - 19.4 °F 80% 30.06 in 6.2 mi Calm Calm - N/A   Overcast
6:00 AM 24.8 °F 20.5 °F 19.4 °F 80% 30.09 in 6.2 mi Variable 3.5 mph - N/A   Overcast
6:30 AM 24.8 °F - 17.6 °F 74% 30.09 in 6.2 mi Variable 2.3 mph - N/A   Overcast
7:00 AM 24 °F - 18 °F 71% 30.20 in 6 mi North 3.5 mph - -   Clear
7:00 AM 24.8 °F 20.5 °F 19.4 °F 80% 30.09 in 6.2 mi North 3.5 mph - N/A   Overcast
7:30 AM 24.8 °F - 17.6 °F 74% 30.12 in 6.2 mi Variable 2.3 mph - N/A   Overcast
8:00 AM 24.8 °F - 17.6 °F 74% 30.12 in 6.2 mi NE 2.3 mph - N/A   Overcast
8:30 AM 24.8 °F - 17.6 °F 74% 30.12 in 6.2 mi Variable 2.3 mph - N/A   Overcast
9:00 AM 24.8 °F - 15.8 °F 69% 30.15 in 6.2 mi Variable 2.3 mph - N/A   Overcast
9:30 AM 26.6 °F - 15.8 °F 64% 30.15 in 6.2 mi Variable 2.3 mph - N/A   Overcast
10:00 AM 26.6 °F 21.2 °F 15.8 °F 64% 30.15 in 6.2 mi NNE 4.6 mph - N/A   Overcast
10:30 AM 26.6 °F 22.6 °F 15.8 °F 64% 30.15 in 6.2 mi Variable 3.5 mph - N/A   Mostly Cloudy
11:00 AM 28.4 °F 23.3 °F 15.8 °F 59% 30.18 in 6.2 mi East 4.6 mph - N/A   Overcast
11:30 AM 28.4 °F 23.3 °F 15.8 °F 59% 30.18 in 6.2 mi NE 4.6 mph - N/A   Overcast
12:00 PM 32.0 °F 26.4 °F 14.0 °F 48% 30.18 in 6.2 mi NNE 5.8 mph - N/A   Mostly Cloudy
12:30 PM 32.0 °F 27.5 °F 15.8 °F 51% 30.18 in 6.2 mi NE 4.6 mph - N/A   Mostly Cloudy
1:00 PM 31 °F - 15 °F 39% 30.25 in 9 mi East 3.5 mph - -   Clear
1:00 PM 32.0 °F 28.7 °F 15.8 °F 51% 30.18 in 6.2 mi Variable 3.5 mph - N/A   Overcast
1:30 PM 30.2 °F 23.4 °F 15.8 °F 55% 30.18 in 6.2 mi ESE 6.9 mph - N/A   Overcast
2:00 PM 30.2 °F 22.6 °F 15.8 °F 55% 30.18 in 6.2 mi East 8.1 mph - N/A   Overcast
2:30 PM 30.2 °F 24.3 °F 15.8 °F 55% 30.18 in 6.2 mi SE 5.8 mph - N/A   Mostly Cloudy
3:00 PM 32.0 °F 25.6 °F 15.8 °F 51% 30.18 in 6.2 mi ESE 6.9 mph - N/A   Mostly Cloudy
3:30 PM 30.2 °F 23.4 °F 15.8 °F 55% 30.18 in 6.2 mi East 6.9 mph - N/A   Overcast
4:00 PM 30.2 °F 22.6 °F 15.8 °F 55% 30.21 in 6.2 mi East 8.1 mph - N/A   Overcast
4:30 PM 30.2 °F 23.4 °F 15.8 °F 55% 30.21 in 6.2 mi East 6.9 mph - N/A   Mostly Cloudy
5:00 PM 30.2 °F 24.3 °F 15.8 °F 55% 30.21 in 6.2 mi East 5.8 mph - N/A   Overcast
5:30 PM 28.4 °F 22.2 °F 15.8 °F 59% 30.21 in 6.2 mi East 5.8 mph - N/A   Overcast
6:00 PM 28.4 °F 23.3 °F 15.8 °F 59% 30.21 in 6.2 mi ENE 4.6 mph - N/A   Overcast
6:30 PM 28.4 °F 19.7 °F 15.8 °F 59% 30.24 in 6.2 mi East 9.2 mph - N/A   Overcast
7:00 PM 29 °F - 17 °F 48% 30.32 in 7 mi East 5.8 mph - -   Clear
7:00 PM 28.4 °F 22.2 °F 17.6 °F 64% 30.24 in 6.2 mi East 5.8 mph - N/A   Overcast
7:30 PM 28.4 °F 23.3 °F 17.6 °F 64% 30.24 in 6.2 mi East 4.6 mph - N/A   Mostly Cloudy
8:00 PM 28.4 °F 22.2 °F 17.6 °F 64% 30.24 in 6.2 mi East 5.8 mph - N/A   Overcast
8:30 PM 26.6 °F 20.0 °F 15.8 °F 64% 30.24 in 6.2 mi ESE 5.8 mph - N/A   Overcast
9:00 PM 26.6 °F 22.6 °F 15.8 °F 64% 30.24 in 6.2 mi ESE 3.5 mph - N/A   Scattered Clouds
9:30 PM 24.8 °F 20.5 °F 15.8 °F 69% 30.24 in 6.2 mi East 3.5 mph - N/A   Unknown
10:00 PM 23.0 °F 17.0 °F 14.0 °F 68% 30.24 in 6.2 mi East 4.6 mph - N/A   Unknown
10:30 PM 21.2 °F 14.9 °F 15.8 °F 80% 30.24 in 6.2 mi East 4.6 mph - N/A   Unknown
11:00 PM 21.2 °F 16.4 °F 15.8 °F 80% 30.24 in 5.6 mi SSE 3.5 mph - N/A   Unknown
11:30 PM 21.2 °F 16.4 °F 14.0 °F 74% 30.21 in 5.6 mi ESE 3.5 mph - N/A   Unknown